Location: Mason Neck State Park
(38.6428°N, 77.1981°W)
Time: 21:30:19
(UTC-04:00)

Daily predictions for brighter satellites

Satellite Brightness Start Highest point End
(mag) Time Altitude Azimuth Time Altitude Azimuth Time Altitude Azimuth
Cosmos 2034 Rocket 4.5 19:12:18 10° SSE 19:18:01 39° E 19:23:47 10° NNE
Cosmos 1464 Rocket 4.1 19:12:24 10° SSE 19:18:25 53° E 19:24:25 10° NNE
Cosmos 2333 Rocket 4.4 19:17:44 10° WSW 19:22:40 28° WNW 19:27:37 10° N
DMSP B5D1-3 4.5 19:18:14 10° NNE 19:23:21 73° ESE 19:28:26 10° S
CZ-4C R/B 4.2 19:22:09 10° WSW 19:26:46 28° NW 19:31:53 10° NNE
CENTAUR R/B 3.4 19:24:37 10° SSE 19:29:15 24° ESE 19:34:17 10° ENE
ATLAS CENTAUR R/B 3.4 19:26:42 10° SW 19:31:10 87° SE 19:45:18 10° NE
SJ-6B 3.0 19:28:22 10° SSE 19:32:15 55° ENE 19:36:15 10° N
SKYMED 2 4.1 19:28:40 10° N 19:32:59 64° WNW 19:37:16 10° SSW
ASTRO E2 4.3 19:30:12 10° WSW 19:33:38 27° S 19:37:03 10° SE
Cosmos 1408 Rocket 3.7 19:29:48 10° N 19:34:03 51° E 19:38:14 10° SSE
Cosmos 724 4.3 19:29:30 10° SSW 19:35:20 67° ESE 19:41:21 10° NE
ATLAS 5 CENTAUR R/B 2.0 19:31:38 10° SW 19:36:22 80° WNW 19:41:31 10° NNE
NOSS 3-2 (C) 3.8 19:33:51 10° SW 19:39:53 73° NW 19:46:29 10° NNE
Cosmos 1484 Rocket 3.7 19:39:21 10° S 19:43:05 52° W 19:46:55 10° NNW
ALOS 3.3 19:42:09 10° ESE 19:45:56 25° ENE 19:49:46 10° NNE
Cosmos 1758 3.3 19:42:24 10° S 19:46:25 63° E 19:50:30 10° NNE
Helios 1A 3.4 19:46:04 10° SE 19:50:00 41° ENE 19:53:59 10° N
Spot 2 Rocket 3.6 19:45:24 10° SSE 19:50:17 53° ENE 19:55:11 10° N
ISS -3.3 19:49:19 10° SW 19:52:31 59° SE 19:54:44 18° ENE
Cosmos 1048 Rocket 4.3 19:48:22 10° S 19:53:24 46° ESE 19:58:23 10° NNE
Cosmos 1544 3.2 19:52:23 10° S 19:56:01 52° E 19:59:41 10° NNE
Cosmos 1269 Rocket 4.0 19:51:10 10° S 19:56:19 58° ESE 20:01:31 10° NNE
METEOR-M 4.1 19:53:15 10° SSE 19:58:35 73° ENE 20:03:56 10° N
Resurs 1-3 3.8 19:55:25 10° SE 19:59:37 47° ENE 20:03:50 10° N
SL-8 R/B 3.6 19:55:35 10° SW 20:00:22 89° SSE 20:04:21 15° ENE
SL-16 R/B 3.9 19:57:07 10° SW 20:02:18 36° WNW 20:07:31 10° N
Meteor 1-21 Rocket 4.1 19:56:46 10° N 20:02:18 70° E 20:07:48 10° SSE
Cosmos 1743 Rocket 3.7 19:59:42 10° N 20:04:03 52° E 20:08:20 10° SSE
Resurs 01 Rocket 1.5 20:00:48 10° SSE 20:05:13 72° ENE 20:09:41 10° N
HJ-1C 3.3 20:05:41 10° SSE 20:09:02 87° ENE 20:12:25 10° N
Cosmos 158 Rocket 4.2 20:07:40 10° S 20:12:09 38° ESE 20:16:38 10° NE
USA 215 3.2 20:07:48 10° NE 20:14:21 76° SE 20:20:53 10° SW
FENGYUN 3A 3.8 20:09:55 12° SE 20:14:43 51° ENE 20:19:55 10° N
CZ-2D R/B 3.8 20:15:35 35° E 20:16:05 36° ENE 20:19:41 10° N
Helios 1B rocket 2.8 20:20:18 10° N 20:24:23 66° WNW 20:28:27 10° SSW
Nadezhda 4 Rocket 3.9 20:18:35 10° N 20:24:54 85° E 20:31:05 10° S
Abrixas 3.7 20:23:24 10° W 20:26:15 38° NNW 20:26:59 32° N
H-2A R/B 2.9 20:28:07 50° E 20:28:20 51° ENE 20:32:07 10° N
GP-B 3.5 20:26:51 10° NNE 20:30:36 41° ENE 20:30:36 41° ENE
SeaSat 1 4.1 20:34:29 18° SSE 20:34:29 18° SSE 20:35:57 10° S
CZ-4B DEB 2.8 20:31:56 68° NNE 20:31:56 68° NNE 20:34:55 10° N
Cosmos 1092 Rocket 3.8 20:27:40 10° N 20:33:53 73° E 20:40:01 10° SSE
ERS-1 Rocket 4.4 20:35:36 22° NE 20:35:36 22° NE 20:38:22 10° NNE
Cosmos 1346 4.4 20:31:44 10° NNW 20:34:33 39° W 20:36:08 21° SSW
GPS 2-04 Rocket1 3.0 20:33:39 10° WSW 20:36:40 45° SSW 20:36:40 45° SSW
Gbstr 26 Del rocket 3.1 20:33:10 10° SW 20:37:34 87° SE 20:39:48 35° NE
Cosmos 1953 4.5 20:35:37 10° SW 20:39:02 27° WNW 20:42:29 10° NNW
Cosmos 1943 Rocket 3.3 20:35:20 10° N 20:39:37 26° NE 20:39:37 26° NE
Cosmos 1655 Rocket 4.3 20:34:11 10° N 20:40:02 40° ENE 20:40:32 40° E
Cosmos 2142 Rocket 4.5 20:33:56 10° S 20:40:11 63° E 20:46:30 10° NNE
Meteor 1-29 4.3 20:38:46 10° N 20:42:05 40° WNW 20:45:21 10° SW
Cosmos 1943 3.0 20:37:50 10° SSW 20:43:28 83° ESE 20:49:07 10° NNE
Cosmos 2369 Rocket 2.1 20:38:20 10° NNW 20:43:58 64° ENE 20:45:20 48° ESE
Cosmos 2026 Rocket 4.1 20:40:06 10° N 20:46:02 50° E 20:46:56 46° ESE
Cosmos 1634 Rocket 3.8 20:41:50 10° S 20:48:03 78° E 20:54:17 10° N
Cosmos 2151 3.6 20:49:07 10° N 20:52:06 43° NNE 20:52:06 43° NNE
Cosmos 2263 4.3 20:47:43 10° NNW 20:53:25 55° ENE 20:53:42 54° ENE
Cosmos 1733 3.7 20:50:08 10° SSW 20:53:57 59° W 20:57:47 10° N
Cosmos 1470 3.8 20:52:12 10° SSW 20:55:56 45° W 20:59:41 10° N
OAO 3 Rocket 3.9 20:52:51 10° W 20:57:20 41° SSW 20:57:20 41° SSW
Cosmos 839 Rocket 4.1 20:54:49 10° NNW 21:02:21 77° ENE 21:03:47 57° SE
ASTEX 1 4.2 21:00:09 10° N 21:04:53 50° W 21:09:35 10° SSW
Cosmos 1674 4.2 21:01:32 10° NNW 21:05:05 35° W 21:06:19 28° SW
Cosmos 2195 Rocket 4.4 21:01:49 10° N 21:08:12 87° E 21:10:05 49° S
CENTAUR R/B 3.1 21:13:22 10° SW 21:19:17 55° NW 21:25:59 10° NNE
ALOS 4.0 21:20:32 17° SW 21:23:14 30° W 21:27:21 10° NW
Meteor 1-16 Rocket 4.3 21:22:42 60° WSW 21:23:20 66° W 21:28:37 10° N
ISS 0.0 21:26:47 10° WNW 21:27:25 13° WNW 21:27:25 13° WNW
Meteor 1-11 4.5 21:27:12 10° NNW 21:32:39 68° WNW 21:32:39 68° WNW
Cosmos 1943 Rocket 4.1 22:18:39 10° NW 22:21:09 25° NW 22:21:09 25° NW
CZ-3A R/B 4.3 21:54:05 10° SW 22:27:50 88° NW 22:27:53 88° NNW
